Change the Weather History Date:

Monday, September 19, 2011

  Actual Average Record
Temperature  
Mean Temperature 52 °F -  
Max Temperature 66 °F 72 °F 88 °F (1983)
Min Temperature 39 °F 50 °F 31 °F (1956)
Degree Days  
Heating Degree Days 12    
Growing Degree Days 2 (Base 50)    
Moisture  
Dew Point 44 °F    
Average Humidity 91    
Maximum Humidity 100    
Minimum Humidity 54    
Precipitation  
Precipitation 0.00 in - - ()
Sea Level Pressure  
Sea Level Pressure 30.25 in    
Wind  
Wind Speed 1 mph (NNE)    
Max Wind Speed 8 mph    
Max Gust Speed -    
Visibility 4 miles    
Events Fog    
Averages and records for this station are not official NWS values.
T = Trace of Precipitation, MM = Missing Value Source: NWS Daily Summary

Daily Weather History Graph

Daily Weather History Graph

Search for Another Location

Airport or City:

Trip Planner

Search our weather history database for the weather conditions in past years. The results will help you decide how hot, cold, wet, or windy it might be!

Date:

Astronomy

Sep. 19, 2011 Rise Set
Actual Time 6:28 AM EDT 6:47 PM EDT
Civil Twilight 6:00 AM EDT 7:14 PM EDT
Nautical Twilight 5:27 AM EDT 7:47 PM EDT
Astronomical Twilight 4:53 AM EDT 8:21 PM EDT
Moon 10:44 PM EDT (9/19) 1:21 PM EDT (9/19)
Length of Visible Light 13h 14m
Length of Day
12h 19m
Waning Gibbous, 59% of the Moon is Illuminated
Sep 19
Waning Gibbous
Sep 20
Last Quarter
Sep 27
New
Oct 3
First Quarter
Oct 11
Full

Hourly Weather History & Observations

Time (EDT) Temp. Dew Point Humidity Pressure Visibility Wind Dir Wind Speed Gust Speed Precip Events Conditions
12:04 AM 42.8 °F 41.0 °F 93% 30.33 in 0.5 mi Calm Calm - N/A Fog Fog
12:50 AM 42.8 °F 41.0 °F 93% 30.33 in 0.2 mi Calm Calm - N/A Fog Fog
12:52 AM 42.1 °F 41.0 °F 96% 30.33 in 0.2 mi Calm Calm - N/A Fog Fog
1:01 AM 42.8 °F 41.0 °F 93% 30.33 in 0.5 mi Calm Calm - N/A Fog Fog
1:40 AM 41.0 °F 39.2 °F 93% 30.32 in 0.5 mi Calm Calm - N/A Fog Fog
1:52 AM 41.0 °F 39.9 °F 96% 30.32 in 0.5 mi Calm Calm - N/A Fog Fog
2:17 AM 39.2 °F 39.2 °F 100% 30.31 in 1.0 mi Calm Calm - N/A   Mist
2:29 AM 39.2 °F 39.2 °F 100% 30.30 in 0.8 mi Calm Calm - N/A   Mist
2:44 AM 39.2 °F 39.2 °F 100% 30.30 in 1.2 mi Calm Calm - N/A   Scattered Clouds
2:46 AM 39.2 °F 39.2 °F 100% 30.30 in 2.0 mi Calm Calm - N/A   Scattered Clouds
2:52 AM 39.9 °F 39.9 °F 100% 30.30 in 4.0 mi Calm Calm - N/A   Scattered Clouds
3:06 AM 39.2 °F 39.2 °F 100% 30.30 in 1.8 mi Calm Calm - N/A   Partly Cloudy
3:17 AM 39.2 °F 39.2 °F 100% 30.29 in 1.5 mi Calm Calm - N/A   Clear
3:37 AM 39.2 °F 39.2 °F 100% 30.29 in 4.0 mi Calm Calm - N/A   Clear
3:40 AM 39.2 °F 39.2 °F 100% 30.29 in 1.5 mi Calm Calm - N/A   Partly Cloudy
3:42 AM 39.2 °F 39.2 °F 100% 30.29 in 0.8 mi Calm Calm - N/A   Mist
3:52 AM 39.0 °F 39.0 °F 100% 30.30 in 0.5 mi Calm Calm - N/A Fog Fog
4:23 AM 39.2 °F 39.2 °F 100% 30.29 in 2.0 mi Calm Calm - N/A   Clear
4:31 AM 41.0 °F 39.2 °F 93% 30.29 in 6.0 mi Calm Calm - N/A   Clear
4:52 AM 41.0 °F 39.9 °F 96% 30.29 in 7.0 mi Calm Calm - N/A   Mostly Cloudy
5:03 AM 39.2 °F 39.2 °F 100% 30.29 in 10.0 mi Calm Calm - N/A   Scattered Clouds
5:52 AM 41.0 °F 39.9 °F 96% 30.29 in 9.0 mi Calm Calm - N/A   Clear
6:33 AM 41.0 °F 39.2 °F 93% 30.29 in 1.5 mi Calm Calm - N/A   Clear
6:40 AM 41.0 °F 39.2 °F 93% 30.29 in 1.2 mi Calm Calm - N/A   Clear
6:42 AM 39.2 °F 39.2 °F 100% 30.29 in 2.0 mi Calm Calm - N/A   Clear
6:49 AM 41.0 °F 39.2 °F 93% 30.29 in 9.0 mi Calm Calm - N/A   Clear
7:52 AM 52.0 °F 50.0 °F 93% 30.30 in 10.0 mi WNW 3.5 mph - N/A   Clear
8:52 AM 57.9 °F 52.0 °F 81% 30.29 in 10.0 mi NNW 3.5 mph - N/A   Clear
9:52 AM 62.1 °F 51.1 °F 67% 30.28 in 10.0 mi North 6.9 mph - N/A   Partly Cloudy
10:52 AM 62.1 °F 48.0 °F 60% 30.28 in 10.0 mi NNE 4.6 mph - N/A   Mostly Cloudy
11:52 AM 63.0 °F 48.0 °F 58% 30.26 in 10.0 mi Variable 5.8 mph - N/A   Mostly Cloudy
12:52 PM 64.9 °F 48.0 °F 54% 30.25 in 10.0 mi NNE 8.1 mph - N/A   Scattered Clouds
2:52 PM 66.0 °F 50.0 °F 56% 30.21 in 10.0 mi Variable 4.6 mph - N/A   Overcast
3:52 PM 64.0 °F 50.0 °F 60% 30.19 in 10.0 mi ESE 5.8 mph - N/A   Mostly Cloudy
4:52 PM 63.0 °F 50.0 °F 63% 30.18 in 10.0 mi Calm Calm - N/A   Mostly Cloudy
5:52 PM 61.0 °F 51.1 °F 70% 30.18 in 10.0 mi Calm Calm - N/A   Overcast
6:52 PM 59.0 °F 52.0 °F 78% 30.17 in 10.0 mi ENE 3.5 mph - N/A   Mostly Cloudy
7:52 PM 53.1 °F 51.1 °F 93% 30.17 in 10.0 mi Calm Calm - N/A   Clear
9:08 PM 48.2 °F 46.4 °F 93% 30.17 in 1.5 mi Calm Calm - N/A   Clear
9:12 PM 48.2 °F 48.2 °F 100% 30.17 in 3.0 mi Calm Calm - N/A   Clear
9:23 PM 46.4 °F 46.4 °F 100% 30.17 in 1.8 mi Calm Calm - N/A   Clear
9:33 PM 46.4 °F 46.4 °F 100% 30.17 in 0.8 mi Calm Calm - N/A   Clear
9:42 PM 46.4 °F 46.4 °F 100% 30.18 in 0.8 mi Calm Calm - N/A   Partly Cloudy
9:45 PM 46.4 °F 46.4 °F 100% 30.18 in 2.0 mi Calm Calm - N/A   Scattered Clouds
9:52 PM 46.9 °F 46.9 °F 100% 30.18 in 6.0 mi Calm Calm - N/A   Mostly Cloudy
10:52 PM 50.0 °F 48.9 °F 96% 30.16 in 10.0 mi Calm Calm - N/A   Mostly Cloudy
11:40 PM 46.4 °F 46.4 °F 100% 30.15 in 1.5 mi Calm Calm - N/A   Clear
11:44 PM 46.4 °F 46.4 °F 100% 30.15 in 0.8 mi Calm Calm - N/A   Clear
11:52 PM 46.0 °F 45.0 °F 96% 30.15 in 1.0 mi Calm Calm - N/A   Clear